PISAT

Satellite information

Favourite Embed

Satellite Type and Status

PAYLOADIN ORBIT

Key statistics

Satellite PISAT at a glance.

Uptime

3324

Days in orbit

Revolutions

≈ 14.7

Per day

Orbit

SSO

Sun Synchronous Orbit

Inclination

97.8

Latest

Satellite identification and parameters

Extended collection of information and parameters for PISAT.

Object identification

Identified? True

Debris? False

Object name: PISAT

International designator: 2016-059B

Object number (NORAD): 41784

Object ID (CCSDS): 41784

Country: INDIA (IND)

Current information (Y/N): Y

RCS size: MEDIUM

Orbital parameters

Period: 98.07 minutes

Inclination: 97.8175 deg

SMA: 7044.509 km

Apoapsis: 686.447 km

Periapsis: 646.301 km

RAAN: 310.8528 deg

Eccentricy: 0.00284943

Argument of periapsis: 210.5585 deg

Mean anomaly: 149.3962 deg

Mean motion: 14.68340094 rev/day

Mean motion (dot): 0.00001521 rev/day2

B* drag term: 0.00026989099 1/REarth

Two-line elements (TLE)

Creation date: Nov. 1, 2025, 7:40 p.m.

Reference frame: TEME

Reference center: EARTH

Epoch: Nov. 1, 2025, 11:01 a.m. UTC

TLE line 0: 0 PISAT

TLE line 1: 1 41784U 16059B 25305.45941849 .00001521 00000-0 26989-3 0 9990

TLE line 2: 2 41784 97.8175 310.8528 0028494 210.5585 149.3962 14.68340094486318

Live tracking on map

Real-time ground track for satellite PISAT.

In-orbit conjunctions

There are no conjunctions computed for PISAT, at the moment. Check back to stay up to date, as we update our databases every day.

Go to all conjunctions

Associated space launch

ScatSat-1 is a microsatellite of 371 kg and a mission life of 5 years. It is tasked to provide weather forecasting, cyclone prediction, and tracking services to India. This launch will also carry 7 other satellites, the 117kg Alsat-2B, the 103kg Alsat-1B & the 7kg Alsat-1N earth observation satellites for Algerian Space Agency, the 44kg Pathfinder-1 earth imager for Blacksky, the 8kg CanX-7 deorbiter for UTIAS Space Flight Laboratory, the 10kg Pratham Ionospheric Tomographer for IIT Bombay and the 5.25kg PiSat earth imager for PES University.

PISAT was lifted into orbit during the mission ‘PSLV | SCATSat-1’, on board a PSLV space rocket.

The launch took place on Sept. 26, 2016, 3:42 a.m. from Satish Dhawan Space Centre First Launch Pad.

For more information about the launch, click the button.

Launch to space PSLV | SCATSat-1
PSLV | SCATSat-1

Agency: N/A

Status: Launch Successful

Launch date: Sept. 26, 2016, 3:42 a.m. UTC

Rocket: PSLV

Launch pad: Satish Dhawan Space Centre First Launch Pad

Location: Satish Dhawan Space Centre, India

...

Latest news about this satellite

There are no fresh news available about this satellite. Check back as we update our databases every day.


Newsletter sign-up

Weekly statistics, charts and insights to help you stay on top of the space industry.